Time,TemperatureF,DewpointF,PressureIn,WindDirection,WindDirectionDegrees,WindSpeedMPH,WindSpeedGustMPH,Humidity,HourlyPrecipIn,Conditions,Clouds,dailyrainin,SoftwareType,DateUTC
2013-01-06 00:06:00,11.5,1.8,30.09,SW,225,1.6,2.2,61,0.00,,,0.00,WSDL version 420,2013-01-06 05:06:00,
2013-01-06 00:21:00,12.6,2.9,30.09,SSE,161,1.2,2.0,61,0.00,,,0.00,WSDL version 420,2013-01-06 05:21:00,
2013-01-06 00:36:00,11.7,2.0,30.09,SSW,203,0.0,1.1,61,0.00,,,0.00,WSDL version 420,2013-01-06 05:36:00,
2013-01-06 00:51:00,11.6,1.8,30.09,WSW,248,1.2,2.5,61,0.00,,,0.00,WSDL version 420,2013-01-06 05:51:00,
2013-01-06 01:06:00,11.7,2.0,30.06,SW,228,0.0,1.1,61,0.00,,,0.00,WSDL version 420,2013-01-06 06:06:00,
2013-01-06 01:21:00,12.4,2.6,30.06,SSW,203,0.0,2.0,61,0.00,,,0.00,WSDL version 420,2013-01-06 06:21:00,
2013-01-06 01:35:00,12.6,2.9,30.06,SW,225,0.0,0.0,61,0.00,,,0.00,WSDL version 420,2013-01-06 06:35:00,
2013-01-06 01:50:00,12.5,2.8,30.03,SW,225,1.6,2.0,61,0.00,,,0.00,WSDL version 420,2013-01-06 06:50:00,
2013-01-06 02:05:00,13.2,8.0,30.03,SW,225,0.0,0.9,77,0.00,,,0.00,WSDL version 420,2013-01-06 07:05:00,
2013-01-06 02:20:00,13.4,7.9,30.03,WSW,248,0.0,0.0,76,0.00,,,0.00,WSDL version 420,2013-01-06 07:20:00,
2013-01-06 02:35:00,13.5,8.0,30.00,SSW,203,0.0,1.6,76,0.00,,,0.00,WSDL version 420,2013-01-06 07:35:00,
2013-01-06 02:50:00,12.0,6.6,30.03,WNW,296,2.3,3.4,76,0.00,,,0.00,WSDL version 420,2013-01-06 07:50:00,
2013-01-06 03:05:00,11.0,5.6,30.00,NW,307,1.4,2.7,76,0.00,,,0.00,WSDL version 420,2013-01-06 08:05:00,
2013-01-06 03:20:00,10.9,5.5,30.03,SW,231,1.5,2.7,76,0.00,,,0.00,WSDL version 420,2013-01-06 08:20:00,
2013-01-06 03:35:00,11.9,6.5,30.00,WNW,293,0.0,1.1,76,0.00,,,0.00,WSDL version 420,2013-01-06 08:35:00,
2013-01-06 03:51:00,12.1,6.6,30.00,ENE,68,0.0,2.2,76,0.00,,,0.00,WSDL version 420,2013-01-06 08:51:00,
2013-01-06 04:06:00,12.2,6.8,29.97,ENE,68,1.1,2.5,76,0.00,,,0.00,WSDL version 420,2013-01-06 09:06:00,
2013-01-06 04:21:00,12.5,7.0,30.00,NNW,338,0.0,1.6,76,0.00,,,0.00,WSDL version 420,2013-01-06 09:21:00,
2013-01-06 04:36:00,11.8,6.4,29.97,NNW,338,0.0,0.0,76,0.00,,,0.00,WSDL version 420,2013-01-06 09:36:00,
2013-01-06 04:51:00,10.7,5.2,29.97,WSW,256,1.5,2.0,76,0.00,,,0.00,WSDL version 420,2013-01-06 09:51:00,
2013-01-06 05:06:00,11.2,5.7,29.97,SSE,152,0.0,1.6,76,0.00,,,0.00,WSDL version 420,2013-01-06 10:06:00,
2013-01-06 05:21:00,11.7,6.3,29.97,SSW,203,0.0,0.0,76,0.00,,,0.00,WSDL version 420,2013-01-06 10:21:00,
2013-01-06 05:36:00,11.9,6.5,29.97,East,90,1.3,2.5,76,0.00,,,0.00,WSDL version 420,2013-01-06 10:36:00,
2013-01-06 05:51:00,11.9,6.5,29.94,WSW,244,0.0,1.6,76,0.00,,,0.00,WSDL version 420,2013-01-06 10:51:00,
2013-01-06 06:06:00,12.4,6.9,29.94,West,259,0.3,1.3,76,0.00,,,0.00,WSDL version 420,2013-01-06 11:06:00,
2013-01-06 06:20:00,12.8,7.3,29.91,WSW,248,0.0,2.7,76,0.00,,,0.00,WSDL version 420,2013-01-06 11:20:00,
2013-01-06 06:35:00,13.4,9.4,29.91,NNE,23,0.0,0.0,82,0.00,,,0.00,WSDL version 420,2013-01-06 11:35:00,
2013-01-06 06:50:00,13.7,9.8,29.88,SE,141,1.8,2.0,82,0.00,,,0.00,WSDL version 420,2013-01-06 11:50:00,
2013-01-06 07:05:00,14.3,10.6,29.88,SE,135,0.0,1.1,83,0.00,,,0.00,WSDL version 420,2013-01-06 12:05:00,
2013-01-06 07:20:00,14.8,11.4,29.91,South,180,0.0,0.0,84,0.00,,,0.00,WSDL version 420,2013-01-06 12:20:00,
2013-01-06 07:35:00,13.9,10.0,29.91,South,180,0.0,0.0,82,0.00,,,0.00,WSDL version 420,2013-01-06 12:35:00,
2013-01-06 07:50:00,14.1,10.1,29.91,WNW,298,0.0,1.3,82,0.00,,,0.00,WSDL version 420,2013-01-06 12:50:00,
2013-01-06 08:05:00,13.9,10.0,29.91,NE,45,0.6,1.3,82,0.00,,,0.00,WSDL version 420,2013-01-06 13:05:00,
2013-01-06 08:30:00,14.3,10.6,29.88,ENE,68,0.5,1.6,83,0.00,,,0.00,WSDL version 420,2013-01-06 13:30:00,
2013-01-06 08:45:00,14.3,10.4,29.88,NE,45,0.6,1.6,82,0.00,,,0.00,WSDL version 420,2013-01-06 13:45:00,
2013-01-06 09:23:00,16.8,12.8,29.88,East,90,0.3,2.0,81,0.00,,,0.00,WSDL version 420,2013-01-06 14:23:00,
2013-01-06 09:56:00,18.7,14.1,29.85,East,90,2.8,4.0,80,0.00,,,0.00,WSDL version 420,2013-01-06 14:56:00,
2013-01-06 10:11:00,20.2,15.8,29.85,East,93,2.9,4.7,81,0.00,,,0.00,WSDL version 420,2013-01-06 15:11:00,
2013-01-06 10:26:00,21.5,16.8,29.85,ESE,105,2.8,6.5,80,0.00,,,0.00,WSDL version 420,2013-01-06 15:26:00,
2013-01-06 10:41:00,22.1,17.2,29.85,SSE,160,2.6,9.2,79,0.00,,,0.00,WSDL version 420,2013-01-06 15:41:00,
2013-01-06 10:56:00,22.9,17.2,29.85,ESE,122,5.2,9.6,76,0.00,,,0.00,WSDL version 420,2013-01-06 15:56:00,
2013-01-06 11:11:00,22.3,17.0,29.85,SE,135,3.0,7.6,78,0.00,,,0.00,WSDL version 420,2013-01-06 16:11:00,
2013-01-06 11:26:00,22.8,17.7,29.80,East,96,3.3,6.0,79,0.00,,,0.00,WSDL version 420,2013-01-06 16:26:00,
2013-01-06 11:41:00,23.3,18.4,29.80,ESE,103,4.1,7.8,79,0.00,,,0.00,WSDL version 420,2013-01-06 16:41:00,
2013-01-06 11:56:00,23.6,18.7,29.80,SE,138,3.8,6.0,79,0.00,,,0.00,WSDL version 420,2013-01-06 16:56:00,
2013-01-06 12:11:00,23.3,18.6,29.80,SE,138,4.0,8.7,80,0.00,,,0.00,WSDL version 420,2013-01-06 17:11:00,
2013-01-06 12:26:00,23.3,18.9,29.80,South,176,3.5,6.9,81,0.00,,,0.00,WSDL version 420,2013-01-06 17:26:00,
2013-01-06 12:41:00,23.0,18.8,29.80,South,170,3.7,7.8,82,0.00,,,0.00,WSDL version 420,2013-01-06 17:41:00,
2013-01-06 12:56:00,23.3,19.7,29.80,SSE,154,3.7,7.2,84,0.00,,,0.00,WSDL version 420,2013-01-06 17:56:00,
2013-01-06 13:11:00,23.4,20.2,29.80,SE,132,2.8,6.5,86,0.00,,,0.00,WSDL version 420,2013-01-06 18:11:00,
2013-01-06 13:26:00,23.6,20.3,29.80,SSE,155,0.8,3.6,86,0.00,,,0.00,WSDL version 420,2013-01-06 18:26:00,
2013-01-06 13:40:00,24.8,21.6,29.80,SSW,199,1.6,6.0,86,0.00,,,0.00,WSDL version 420,2013-01-06 18:40:00,
2013-01-06 13:55:00,25.0,21.3,29.83,SSE,160,3.5,7.4,83,0.00,,,0.00,WSDL version 420,2013-01-06 18:55:00,
2013-01-06 14:10:00,25.3,21.4,29.83,SE,143,4.6,7.4,83,0.00,,,0.00,WSDL version 420,2013-01-06 19:10:00,
2013-01-06 14:25:00,25.1,21.3,29.77,South,170,3.4,6.3,83,0.00,,,0.00,WSDL version 420,2013-01-06 19:25:00,
2013-01-06 14:56:00,25.2,22.0,29.80,South,174,3.4,8.7,86,0.00,,,0.00,WSDL version 420,2013-01-06 19:56:00,
2013-01-06 15:11:00,24.9,21.9,29.77,SSE,165,3.0,5.6,87,0.00,,,0.00,WSDL version 420,2013-01-06 20:11:00,
2013-01-06 15:26:00,24.8,22.2,29.80,ESE,113,4.4,6.0,89,0.00,,,0.00,WSDL version 420,2013-01-06 20:26:00,
2013-01-06 15:41:00,24.7,22.5,29.80,ESE,110,2.8,7.4,90,0.00,,,0.00,WSDL version 420,2013-01-06 20:41:00,
2013-01-06 15:56:00,24.5,22.3,29.80,ENE,73,1.8,5.6,90,0.00,,,0.00,WSDL version 420,2013-01-06 20:56:00,
2013-01-06 16:11:00,24.5,22.6,29.80,ESE,106,2.8,5.4,91,0.00,,,0.00,WSDL version 420,2013-01-06 21:11:00,
2013-01-06 16:26:00,24.5,22.6,29.80,SE,131,3.3,6.0,91,0.00,,,0.00,WSDL version 420,2013-01-06 21:26:00,
2013-01-06 16:41:00,24.3,22.6,29.83,SE,124,2.6,4.0,92,0.00,,,0.00,WSDL version 420,2013-01-06 21:41:00,
2013-01-06 16:56:00,24.3,22.9,29.80,ESE,113,2.8,5.6,93,0.00,,,0.00,WSDL version 420,2013-01-06 21:56:00,
2013-01-06 17:11:00,24.2,22.8,29.80,East,90,0.6,3.8,93,0.00,,,0.00,WSDL version 420,2013-01-06 22:11:00,
2013-01-06 17:26:00,24.2,22.7,29.80,ESE,116,2.1,3.4,93,0.00,,,0.00,WSDL version 420,2013-01-06 22:26:00,
2013-01-06 17:41:00,24.1,22.6,29.80,ESE,120,1.9,3.1,93,0.00,,,0.00,WSDL version 420,2013-01-06 22:41:00,
2013-01-06 17:56:00,24.2,23.2,29.80,ESE,110,2.1,4.7,96,0.00,,,0.00,WSDL version 420,2013-01-06 22:56:00,
2013-01-06 18:11:00,24.3,23.7,29.80,SE,125,3.5,7.4,98,0.00,,,0.00,WSDL version 420,2013-01-06 23:11:00,
2013-01-06 18:25:00,24.3,23.9,29.80,East,98,2.8,6.3,98,0.00,,,0.00,WSDL version 420,2013-01-06 23:25:00,
2013-01-06 18:40:00,24.5,24.2,29.80,SE,128,3.2,6.3,99,0.00,,,0.00,WSDL version 420,2013-01-06 23:40:00,
2013-01-06 18:55:00,24.9,24.9,29.80,ESE,116,3.0,6.5,100,0.00,,,0.00,WSDL version 420,2013-01-06 23:55:00,
2013-01-06 19:10:00,25.1,25.1,29.80,SSE,158,4.2,6.5,100,0.00,,,0.00,WSDL version 420,2013-01-07 00:10:00,
2013-01-06 19:25:00,25.2,25.2,29.80,SE,129,4.1,8.5,100,0.00,,,0.00,WSDL version 420,2013-01-07 00:25:00,
2013-01-06 19:41:00,25.4,25.4,29.83,ESE,121,2.1,5.6,100,0.00,,,0.00,WSDL version 420,2013-01-07 00:41:00,
2013-01-06 19:56:00,25.6,25.6,29.80,SE,128,3.0,6.5,100,0.00,,,0.00,WSDL version 420,2013-01-07 00:56:00,
2013-01-06 20:11:00,25.8,25.8,29.83,SE,146,4.0,7.4,100,0.00,,,0.00,WSDL version 420,2013-01-07 01:11:00,
2013-01-06 20:26:00,26.0,26.0,29.80,ESE,113,3.8,11.0,100,0.00,,,0.00,WSDL version 420,2013-01-07 01:26:00,
2013-01-06 20:41:00,26.1,26.1,29.80,ESE,122,3.4,4.7,100,0.00,,,0.00,WSDL version 420,2013-01-07 01:41:00,
2013-01-06 20:56:00,26.1,26.1,29.80,ESE,120,3.0,6.0,100,0.00,,,0.00,WSDL version 420,2013-01-07 01:56:00,
2013-01-06 21:11:00,26.3,26.3,29.80,East,86,2.2,6.0,100,0.00,,,0.00,WSDL version 420,2013-01-07 02:11:00,
2013-01-06 21:26:00,26.3,26.3,29.80,ESE,105,2.4,7.8,100,0.00,,,0.00,WSDL version 420,2013-01-07 02:26:00,
2013-01-06 21:41:00,26.3,26.3,29.80,ESE,109,3.9,5.8,100,0.00,,,0.00,WSDL version 420,2013-01-07 02:41:00,
2013-01-06 21:56:00,26.3,26.3,29.80,ESE,109,3.5,5.6,100,0.00,,,0.00,WSDL version 420,2013-01-07 02:56:00,
2013-01-06 22:11:00,26.3,26.3,29.80,East,95,2.8,5.6,100,0.00,,,0.00,WSDL version 420,2013-01-07 03:11:00,
2013-01-06 22:26:00,26.3,26.3,29.83,ESE,107,3.0,4.9,100,0.00,,,0.00,WSDL version 420,2013-01-07 03:26:00,
2013-01-06 22:41:00,26.5,26.5,29.83,ESE,122,2.7,7.2,100,0.00,,,0.00,WSDL version 420,2013-01-07 03:41:00,
2013-01-06 22:56:00,26.7,26.7,29.83,ESE,109,2.9,5.4,100,0.00,,,0.00,WSDL version 420,2013-01-07 03:56:00,
2013-01-06 23:10:00,26.9,26.9,29.83,SE,139,1.9,5.6,100,0.00,,,0.00,WSDL version 420,2013-01-07 04:10:00,
2013-01-06 23:25:00,26.9,26.9,29.85,SE,128,4.7,7.2,100,0.00,,,0.00,WSDL version 420,2013-01-07 04:25:00,
2013-01-06 23:40:00,27.1,27.1,29.83,East,90,2.9,7.2,100,0.00,,,0.00,WSDL version 420,2013-01-07 04:40:00,
2013-01-06 23:55:00,27.0,27.0,29.85,SE,131,3.6,6.0,100,0.00,,,0.00,WSDL version 420,2013-01-07 04:55:00,